Weather History for Orange, MA

Change the Weather History Date:

Friday, July 19, 2013

  Actual Average Record
Temperature  
Mean Temperature 84 °F -  
Max Temperature 96 °F 78 °F 96 °F (2013)
Min Temperature 71 °F 55 °F 53 °F (1998)
Cooling Degree Days 18    
Growing Degree Days 34 (Base 50)    
Moisture  
Dew Point 70 °F    
Average Humidity 65    
Maximum Humidity 93    
Minimum Humidity 41    
Precipitation  
Precipitation 0.00 in - - ()
Sea Level Pressure  
Sea Level Pressure 29.84 in    
Wind  
Wind Speed 5 mph (SSW)    
Max Wind Speed 20 mph    
Max Gust Speed 28 mph    
Visibility 10 miles    
Events      
Averages and records for this station are not official NWS values.
T = Trace of Precipitation, MM = Missing Value Source: NWS Daily Summary

Daily Weather History Graph

Daily Weather History Graph

Search for Another Location

Airport:

Trip Planner

Search our weather history database for the weather conditions in past years. The results will help you decide how hot, cold, wet, or windy it might be!

Date:

Astronomy

Jul. 19, 2013 Rise Set
Actual Time 5:28 AM EDT 8:21 PM EDT
Civil Twilight 4:55 AM EDT 8:54 PM EDT
Nautical Twilight 4:13 AM EDT 9:37 PM EDT
Astronomical Twilight 3:23 AM EDT 10:25 PM EDT
Moon 5:20 PM EDT (7/19) 2:07 AM EDT (7/19)
Length of Visible Light 15h 59m
Length of Day
14h 53m
Waxing Gibbous, 86% of the Moon is Illuminated
Jul 19
Waxing Gibbous
Jul 22
Full
Jul 29
Last Quarter
Aug 6
New
Aug 14
First Quarter

Hourly Weather History & Observations

Time (EDT) Temp. Heat Index Dew Point Humidity Pressure Visibility Wind Dir Wind Speed Gust Speed Precip Events Conditions
12:52 AM 75.0 °F - 72.0 °F 90% 29.95 in 10.0 mi Calm Calm - N/A   Clear
1:52 AM 73.0 °F - 71.1 °F 93% 29.95 in 10.0 mi Calm Calm - N/A   Clear
2:52 AM 72.0 °F - 70.0 °F 93% 29.94 in 8.0 mi Calm Calm - N/A   Clear
3:52 AM 72.0 °F - 70.0 °F 93% 29.93 in 9.0 mi Calm Calm - N/A   Clear
4:52 AM 71.1 °F - 69.1 °F 93% 29.92 in 8.0 mi Calm Calm - N/A   Clear
5:52 AM 71.1 °F - 69.1 °F 93% 29.91 in 6.0 mi Calm Calm - N/A   Clear
6:52 AM 73.0 °F - 70.0 °F 90% 29.91 in 10.0 mi Calm Calm - N/A   Clear
7:52 AM 80.1 °F 83.6 °F 71.1 °F 74% 29.91 in 10.0 mi South 3.5 mph - N/A   Clear
8:52 AM 82.0 °F 86.7 °F 72.0 °F 71% 29.91 in 10.0 mi SSE 3.5 mph - N/A   Clear
9:52 AM 88.0 °F 92.1 °F 69.1 °F 53% 29.89 in 10.0 mi SW 9.2 mph - N/A   Clear
10:52 AM 90.0 °F 94.5 °F 69.1 °F 50% 29.88 in 10.0 mi WSW 12.7 mph 20.7 mph N/A   Clear
11:52 AM 93.0 °F 97.4 °F 68.0 °F 44% 29.86 in 10.0 mi WSW 16.1 mph - N/A   Partly Cloudy
12:52 PM 93.9 °F 98.6 °F 68.0 °F 43% 29.83 in 10.0 mi SW 15.0 mph 20.7 mph N/A   Partly Cloudy
1:52 PM 95.0 °F 99.5 °F 68.0 °F 41% 29.81 in 10.0 mi SW 17.3 mph 26.5 mph N/A   Clear
2:52 PM 95.0 °F 99.5 °F 68.0 °F 41% 29.79 in 10.0 mi SW 19.6 mph 27.6 mph N/A   Scattered Clouds
3:52 PM 96.1 °F 103.5 °F 71.1 °F 44% 29.76 in 10.0 mi SW 13.8 mph 21.9 mph N/A   Partly Cloudy
4:52 PM 95.0 °F 101.3 °F 70.0 °F 44% 29.74 in 10.0 mi SW 13.8 mph 21.9 mph N/A   Clear
5:52 PM 93.9 °F 100.8 °F 71.1 °F 47% 29.73 in 10.0 mi SSW 11.5 mph - N/A   Clear
6:52 PM 91.0 °F 98.2 °F 72.0 °F 53% 29.73 in 10.0 mi SW 10.4 mph - N/A   Clear
7:52 PM 88.0 °F 94.7 °F 72.0 °F 59% 29.74 in 10.0 mi SSW 8.1 mph - N/A   Clear
8:52 PM 86.0 °F 92.2 °F 72.0 °F 63% 29.75 in 10.0 mi South 8.1 mph - N/A   Clear
9:52 PM 84.0 °F 89.0 °F 71.1 °F 65% 29.76 in 10.0 mi South 9.2 mph - N/A   Clear
10:52 PM 84.0 °F 88.4 °F 70.0 °F 63% 29.77 in 10.0 mi SSW 8.1 mph - N/A   Partly Cloudy
11:52 PM 82.0 °F 86.7 °F 72.0 °F 71% 29.76 in 10.0 mi SSW 5.8 mph - N/A   Clear